Weather History for Santa Monica, CA

Change the Weather History Date:

Thursday, February 14, 2013

  Actual Average Record
Temperature  
Mean Temperature 55 °F -  
Max Temperature 66 °F 68 °F 88 °F (1943)
Min Temperature 44 °F 48 °F 31 °F (1949)
Degree Days  
Heating Degree Days 10    
Growing Degree Days 5 (Base 50)    
Moisture  
Dew Point 46 °F    
Average Humidity 75    
Maximum Humidity 94    
Minimum Humidity 33    
Precipitation  
Precipitation 0.00 in - - ()
Sea Level Pressure  
Sea Level Pressure 30.13 in    
Wind  
Wind Speed 3 mph (SW)    
Max Wind Speed 10 mph    
Max Gust Speed -    
Visibility 7 miles    
Events      
Averages and records for this station are not official NWS values.
T = Trace of Precipitation, MM = Missing Value Source: NWS Daily Summary

Daily Weather History Graph

Daily Weather History Graph

Search for Another Location

Airport:

Trip Planner

Search our weather history database for the weather conditions in past years. The results will help you decide how hot, cold, wet, or windy it might be!

Date:

Astronomy

Feb. 14, 2013 Rise Set
Actual Time 6:39 AM PST 5:37 PM PST
Civil Twilight 6:13 AM PST 6:02 PM PST
Nautical Twilight 5:44 AM PST 6:32 PM PST
Astronomical Twilight 5:15 AM PST 7:01 PM PST
Moon 8:59 AM PST (2/14) 10:27 PM PST (2/14)
Length of Visible Light 11h 49m
Length of Day
10h 58m
Waxing Crescent, 22% of the Moon is Illuminated
Feb 14
Waxing Crescent
Feb 17
First Quarter
Feb 25
Full
Mar 4
Last Quarter
Mar 11
New

Hourly Weather History & Observations

Time (PST) Temp. Windchill Dew Point Humidity Pressure Visibility Wind Dir Wind Speed Gust Speed Precip Events Conditions
1:51 AM 48.9 °F - 39.0 °F 69% 30.17 in 10.0 mi North 3.5 mph - N/A   Clear
2:51 AM 44.1 °F - 39.0 °F 82% 30.14 in 10.0 mi Calm Calm - N/A   Clear
4:51 AM 44.1 °F - 37.9 °F 79% 30.14 in 10.0 mi Calm Calm - N/A   Clear
5:51 AM 44.1 °F 42.5 °F 37.9 °F 79% 30.14 in 10.0 mi ENE 3.5 mph - N/A   Clear
6:51 AM 45.0 °F - 37.0 °F 74% 30.14 in 10.0 mi Calm Calm - N/A   Clear
7:51 AM 48.9 °F - 39.9 °F 71% 30.16 in 10.0 mi Calm Calm - N/A   Clear
8:51 AM 55.9 °F - 39.0 °F 53% 30.17 in 10.0 mi SSW 4.6 mph - N/A   Clear
9:51 AM 59.0 °F - 39.0 °F 48% 30.21 in 10.0 mi SSW 4.6 mph - N/A   Clear
10:51 AM 62.1 °F - 37.9 °F 41% 30.18 in 10.0 mi Calm Calm - N/A   Clear
11:51 AM 66.0 °F - 36.0 °F 33% 30.14 in 10.0 mi Calm Calm - N/A   Clear
12:51 PM 66.9 °F - 41.0 °F 39% 30.11 in 9.0 mi Variable 6.9 mph - N/A   Clear
1:51 PM 63.0 °F - 43.0 °F 48% 30.09 in 9.0 mi Variable 6.9 mph - N/A   Clear
2:51 PM 63.0 °F - 46.9 °F 56% 30.08 in 8.0 mi WSW 5.8 mph - N/A   Clear
3:51 PM 61.0 °F - 48.9 °F 64% 30.09 in 8.0 mi West 9.2 mph - N/A   Clear
3:57 PM 60.8 °F - 50.0 °F 68% 30.09 in 8.0 mi WSW 10.4 mph - N/A   Clear
4:24 PM 57.2 °F - 51.8 °F 82% 30.09 in 2.0 mi WSW 8.1 mph - N/A   Unknown
4:32 PM 55.4 °F - 51.8 °F 88% 30.09 in 2.0 mi WSW 8.1 mph - N/A   Mostly Cloudy
4:51 PM 55.0 °F - 52.0 °F 89% 30.09 in 2.0 mi WSW 8.1 mph - N/A   Mostly Cloudy
4:58 PM 53.6 °F - 51.8 °F 94% 30.09 in 4.0 mi WSW 5.8 mph - N/A   Overcast
5:40 PM 53.6 °F - 51.8 °F 94% 30.10 in 6.0 mi Calm Calm - N/A   Scattered Clouds
5:51 PM 54.0 °F - 50.0 °F 86% 30.10 in 7.0 mi SSW 3.5 mph - N/A   Clear
6:05 PM 53.6 °F - 51.8 °F 94% 30.10 in 3.0 mi SSW 3.5 mph - N/A   Scattered Clouds
6:17 PM 53.6 °F - 51.8 °F 94% 30.11 in 4.0 mi SW 3.5 mph - N/A   Mostly Cloudy
6:51 PM 53.1 °F - 51.1 °F 93% 30.12 in 4.0 mi SW 3.5 mph - N/A   Overcast
7:17 PM 53.6 °F - 50.0 °F 88% 30.13 in 5.0 mi Calm Calm - N/A   Scattered Clouds
7:51 PM 54.0 °F - 50.0 °F 86% 30.12 in 6.0 mi Calm Calm - N/A   Clear
8:51 PM 53.1 °F - 48.9 °F 86% 30.14 in 6.0 mi Calm Calm - N/A   Clear
9:51 PM 51.1 °F - 48.9 °F 92% 30.15 in 4.0 mi Calm Calm - N/A   Clear
10:51 PM 51.1 °F - 48.9 °F 92% 30.15 in 5.0 mi NE 3.5 mph - N/A   Clear
11:51 PM 52.0 °F - 46.9 °F 83% 30.15 in 8.0 mi Calm Calm - N/A   Clear